period_start,C,m1,H,J0,J1,J2,J3,J4,J5,JA,JB,JC,JD,JJ,JK,JN,#
2017-02-23 00:04:17,0.43,13.44,0.00,18.57,21.75,26.07,14.95,50.88,1023.93,2043.99,931.64,1240.84,1431.60,600.22,609.71,27.52,0000 0000 0000 0000 000000
2017-02-23 00:09:19,0.34,13.47,0.00,18.60,21.75,26.08,14.94,50.88,1023.85,2043.99,930.31,1239.72,1430.23,600.21,609.59,27.57,0000 0000 0000 0000 000000
2017-02-23 00:14:20,0.39,13.48,0.00,18.62,21.76,26.08,14.90,50.94,1023.69,2043.99,928.91,1238.57,1428.94,600.52,609.68,27.62,0000 0000 0000 0000 000000
2017-02-23 00:19:22,0.38,13.50,0.00,18.61,21.76,26.08,14.93,50.95,1023.56,2043.99,927.61,1237.50,1427.68,600.16,609.28,27.67,0000 0000 0000 0000 000000
2017-02-23 00:24:23,0.34,13.52,0.00,18.63,21.77,26.10,14.95,51.08,1023.49,2043.99,926.26,1236.42,1426.44,600.18,609.37,27.72,0000 0000 0000 0000 000000
2017-02-23 00:29:24,0.36,13.54,0.00,18.64,21.77,26.10,14.94,51.11,1023.47,2043.99,924.86,1235.30,1425.16,600.35,609.32,27.77,0000 0000 0000 0000 000000
2017-02-23 00:34:26,0.38,13.56,0.00,18.64,21.77,26.10,14.87,51.19,1023.46,2043.99,923.54,1234.19,1423.85,599.74,608.74,27.82,0000 0000 0000 0000 000000
2017-02-23 00:39:27,0.36,13.58,0.00,18.65,21.77,26.11,14.91,51.13,1023.45,2044.00,922.18,1233.03,1422.54,600.07,609.22,27.87,0000 0000 0000 0000 000000
2017-02-23 00:44:28,0.39,13.60,0.00,18.66,21.77,26.11,14.93,51.20,1023.45,2044.00,920.79,1231.89,1421.30,600.13,609.12,27.92,0000 0000 0000 0000 000000
2017-02-23 00:49:29,0.37,13.61,0.00,18.68,21.78,26.13,14.93,51.06,1023.45,2044.00,919.53,1230.78,1419.98,600.24,609.18,27.97,0000 0000 0000 0000 000000
2017-02-23 00:54:30,0.36,13.63,0.00,18.69,21.79,26.14,14.97,51.17,1023.45,2044.00,918.23,1229.69,1418.73,600.57,609.46,28.02,0000 0000 0000 0000 000000
2017-02-23 00:59:31,0.37,13.65,0.00,18.72,21.79,26.14,14.93,51.12,1023.45,2044.00,916.87,1228.62,1417.49,600.52,609.34,28.07,0000 0000 0000 0000 000000
2017-02-23 01:04:33,0.38,13.67,0.00,18.74,21.80,26.17,14.89,51.22,1023.38,2044.00,915.59,1227.48,1416.20,600.02,608.90,28.12,0000 0000 0000 0000 000000
2017-02-23 01:09:34,0.35,13.69,0.00,18.78,21.82,26.19,14.83,51.32,1023.24,2044.00,914.35,1226.37,1414.85,599.69,608.20,28.17,0000 0000 0000 0000 000000
2017-02-23 01:14:35,0.34,13.71,0.00,18.81,21.82,26.20,14.82,51.33,1023.02,2044.00,913.06,1225.32,1413.62,599.90,608.29,28.22,0000 0000 0000 0000 000000
2017-02-23 01:19:37,0.36,13.73,0.00,18.83,21.84,26.21,14.84,51.21,1022.99,2044.00,911.82,1224.21,1412.31,599.92,608.21,28.27,0000 0000 0000 0000 000000
2017-02-23 01:24:38,0.38,13.74,0.00,18.83,21.85,26.23,14.89,51.23,1023.03,2044.00,910.55,1223.11,1410.96,599.87,608.22,28.33,0000 0000 0000 0000 000000
2017-02-23 01:29:39,0.37,13.76,0.00,18.84,21.87,26.23,14.84,51.26,1023.02,2044.00,909.24,1221.93,1409.67,600.02,608.38,28.38,0000 0000 0000 0000 000000
2017-02-23 01:34:40,0.43,13.78,0.00,18.87,21.88,26.25,14.87,51.38,1023.01,2043.99,907.79,1220.73,1408.32,599.76,608.02,28.43,0000 0000 0000 0000 000000
2017-02-23 01:39:41,0.42,13.81,0.00,18.88,21.89,26.28,14.88,51.31,1022.99,2043.98,906.38,1219.51,1406.84,599.80,608.05,28.48,0000 0000 0000 0000 000000
2017-02-23 01:44:43,0.39,13.83,0.00,18.90,21.91,26.30,14.91,51.27,1022.98,2043.98,904.88,1218.27,1405.48,599.65,607.85,28.53,0000 0000 0000 0000 000000
2017-02-23 01:49:44,0.38,13.84,0.00,18.94,21.92,26.30,14.94,51.33,1022.96,2043.97,903.54,1217.12,1404.19,599.99,608.11,28.58,0000 0000 0000 0000 000000
2017-02-23 01:54:45,0.36,13.86,0.00,18.97,21.93,26.33,14.81,51.30,1022.97,2043.96,902.21,1216.00,1402.81,599.72,607.74,28.63,0000 0000 0000 0000 000000
2017-02-23 01:59:46,0.35,13.88,0.00,19.00,21.95,26.34,14.84,51.33,1022.96,2043.83,900.83,1214.95,1401.53,599.97,607.92,28.68,0000 0000 0000 0000 000000
2017-02-23 02:04:48,0.40,13.90,0.00,19.03,21.97,26.36,14.79,51.23,1022.97,2043.81,899.52,1213.88,1400.22,599.56,607.46,28.73,0000 0000 0000 0000 000000
2017-02-23 02:09:49,0.35,13.92,0.00,19.06,21.98,26.37,14.93,51.38,1023.01,2043.61,898.18,1212.72,1398.85,600.26,608.12,28.78,0000 0000 0000 0000 000000
2017-02-23 02:14:50,0.38,13.94,0.00,19.09,21.99,26.41,14.89,51.38,1023.06,2043.42,896.79,1211.61,1397.56,600.06,607.78,28.83,0000 0000 0000 0000 000000
2017-02-23 02:19:51,0.33,13.95,0.00,19.12,22.02,26.40,14.85,51.40,1023.08,2043.16,895.55,1210.43,1396.26,599.80,607.61,28.88,0000 0000 0000 0000 000000
2017-02-23 02:24:53,0.36,13.97,0.00,19.15,22.03,26.42,14.87,51.44,1023.10,2043.06,894.17,1209.26,1394.87,600.12,607.78,28.93,0000 0000 0000 0000 000000
2017-02-23 02:29:54,0.39,13.99,0.00,19.17,22.05,26.45,14.83,51.51,1023.02,2043.05,892.84,1208.11,1393.54,600.16,607.83,28.98,0000 0000 0000 0000 000000
2017-02-23 02:34:56,0.40,14.01,0.00,19.22,22.07,26.46,14.83,51.49,1023.06,2043.03,891.54,1206.94,1392.26,599.82,607.34,29.03,0000 0000 0000 0000 000000
2017-02-23 02:39:57,0.40,14.03,0.00,19.24,22.09,26.49,14.81,51.41,1023.03,2043.01,890.16,1205.72,1390.84,599.83,607.40,29.08,0000 0000 0000 0000 000000
2017-02-23 02:44:58,0.43,14.05,0.00,19.28,22.12,26.50,14.89,51.48,1023.02,2043.00,888.76,1204.57,1389.51,600.18,607.56,29.13,0000 0000 0000 0000 000000
2017-02-23 02:50:00,0.37,14.08,0.00,19.30,22.15,26.53,14.86,51.60,1023.01,2043.00,887.47,1203.43,1388.17,599.37,606.75,29.18,0000 0000 0000 0000 000000
2017-02-23 02:55:01,0.38,14.09,0.00,19.35,22.18,26.54,14.84,51.58,1022.98,2043.00,886.11,1202.26,1386.75,599.99,607.17,29.23,0000 0000 0000 0000 000000
2017-02-23 03:00:02,0.41,14.11,0.00,19.37,22.20,26.55,14.78,51.47,1022.97,2042.99,884.75,1201.07,1385.44,599.91,607.11,29.28,0000 0000 0000 0000 000000
2017-02-23 03:05:03,0.40,14.13,0.00,19.40,22.23,26.59,14.88,51.42,1022.96,2042.98,883.50,1199.87,1384.03,600.25,607.33,29.33,0000 0000 0000 0000 000000
2017-02-23 03:10:05,0.43,14.16,0.00,19.44,22.26,26.63,14.83,51.44,1022.94,2042.91,882.10,1198.59,1382.50,599.78,606.78,29.38,0000 0000 0000 0000 000000
2017-02-23 03:15:06,0.30,14.17,0.00,19.48,22.29,26.64,14.84,51.38,1022.88,2042.45,880.75,1197.45,1381.11,600.06,606.99,29.43,0000 0000 0000 0000 000000
2017-02-23 03:20:07,0.35,14.19,0.00,19.50,22.32,26.68,14.77,51.33,1022.70,2042.05,879.55,1196.30,1379.76,599.54,606.23,29.48,0000 0000 0000 0000 000000
2017-02-23 03:25:08,0.36,14.21,0.00,19.54,22.35,26.71,14.71,51.27,1022.57,2042.02,878.24,1195.12,1378.42,599.65,606.29,29.53,0000 0000 0000 0000 000000
2017-02-23 03:30:10,0.40,14.23,0.00,19.56,22.38,26.74,14.81,51.26,1022.59,2042.00,876.88,1193.98,1377.04,599.81,606.34,29.58,0000 0000 0000 0000 000000
2017-02-23 03:35:11,0.45,14.25,0.00,19.61,22.40,26.76,14.83,51.21,1022.65,2041.99,875.55,1192.78,1375.73,600.08,606.65,29.63,0000 0000 0000 0000 000000
2017-02-23 03:40:12,0.39,14.27,0.00,19.63,22.43,26.78,14.87,51.25,1022.79,2041.99,874.19,1191.63,1374.38,600.22,606.89,29.68,0000 0000 0000 0000 000000
2017-02-23 03:45:13,0.43,14.29,0.00,19.64,22.45,26.81,14.82,51.40,1022.89,2041.97,872.81,1190.46,1372.95,599.81,606.32,29.73,0000 0000 0000 0000 000000
2017-02-23 03:50:14,0.40,14.31,0.00,19.67,22.48,26.84,14.81,51.30,1022.94,2041.97,871.52,1189.32,1371.66,600.11,606.66,29.78,0000 0000 0000 0000 000000
2017-02-23 03:55:15,0.34,14.33,0.00,19.70,22.50,26.88,14.77,51.29,1022.96,2041.87,870.10,1188.18,1370.36,599.83,606.35,29.83,0000 0000 0000 0000 000000
2017-02-23 04:00:17,0.37,14.35,0.00,19.73,22.53,26.90,14.85,51.42,1022.95,2041.62,868.72,1186.97,1368.98,600.09,606.47,29.88,0000 0000 0000 0000 000000
2017-02-23 04:05:18,0.36,14.37,0.00,19.77,22.56,26.92,14.81,51.35,1022.96,2041.15,867.50,1185.81,1367.70,599.91,606.29,29.93,0000 0000 0000 0000 000000
2017-02-23 04:10:19,0.37,14.39,0.00,19.81,22.59,26.95,14.82,51.47,1022.96,2041.04,866.23,1184.70,1366.42,600.18,606.41,29.98,0000 0000 0000 0000 000000
2017-02-23 04:15:20,0.36,14.40,0.00,19.82,22.62,26.96,14.80,51.42,1022.96,2041.02,864.94,1183.60,1365.15,599.57,605.72,30.03,0000 0000 0000 0000 000000
2017-02-23 04:20:22,0.40,14.42,0.00,19.85,22.65,27.00,14.78,51.42,1022.96,2041.02,863.77,1182.51,1363.83,599.89,606.18,30.08,0000 0000 0000 0000 000000
2017-02-23 04:25:23,0.41,14.44,0.00,19.87,22.68,27.02,14.81,51.52,1022.96,2041.00,862.45,1181.41,1362.56,600.00,606.16,30.13,0000 0000 0000 0000 000000
2017-02-23 04:30:24,0.34,14.46,0.00,19.91,22.71,27.06,14.85,51.50,1022.96,2041.00,861.28,1180.31,1361.28,599.96,606.13,30.18,0000 0000 0000 0000 000000
2017-02-23 04:35:25,0.35,14.48,0.00,19.94,22.75,27.08,14.70,51.35,1022.96,2041.00,860.04,1179.24,1359.95,599.75,605.78,30.23,0000 0000 0000 0000 000000
2017-02-23 04:40:27,0.42,14.50,0.00,19.94,22.78,27.11,14.91,51.50,1022.96,2040.98,858.79,1178.11,1358.64,600.06,606.01,30.28,0000 0000 0000 0000 000000
2017-02-23 04:45:28,0.36,14.52,0.00,19.94,22.81,27.15,14.88,51.52,1022.96,2040.94,857.59,1177.01,1357.41,600.10,606.07,30.33,0000 0000 0000 0000 000000
2017-02-23 04:50:29,0.25,14.54,0.00,19.99,22.84,27.16,14.82,51.53,1022.96,2040.46,856.38,1175.93,1356.12,599.95,605.90,30.38,0000 0000 0000 0000 000000
2017-02-23 04:55:30,0.36,14.55,0.00,20.01,22.88,27.19,14.80,51.37,1022.95,2040.05,855.16,1174.86,1354.78,599.77,605.57,30.43,0000 0000 0000 0000 000000
2017-02-23 05:00:31,0.41,14.57,0.00,20.01,22.91,27.23,14.88,51.35,1022.93,2040.02,853.77,1173.83,1353.58,600.00,605.78,30.48,0000 0000 0000 0000 000000
2017-02-23 05:05:33,0.41,14.59,0.00,20.02,22.94,27.27,14.80,51.43,1022.94,2040.00,852.54,1172.71,1352.29,599.71,605.70,30.53,0000 0000 0000 0000 000000
2017-02-23 05:10:34,0.38,14.61,0.00,20.06,22.96,27.28,14.87,51.42,1022.96,2040.00,851.36,1171.58,1350.90,600.18,605.91,30.58,0000 0000 0000 0000 000000
2017-02-23 05:15:34,0.38,14.63,0.00,20.06,22.99,27.30,14.76,51.48,1022.96,2039.99,850.06,1170.50,1349.65,599.83,605.58,30.63,0000 0000 0000 0000 000000
2017-02-23 05:20:36,0.43,14.65,0.00,20.08,23.02,27.33,14.87,51.44,1022.96,2039.97,848.74,1169.32,1348.31,600.05,605.78,30.68,0000 0000 0000 0000 000000
2017-02-23 05:25:37,0.35,14.67,0.00,20.09,23.04,27.37,14.85,51.49,1022.96,2039.83,847.46,1168.17,1346.93,599.99,605.76,30.73,0000 0000 0000 0000 000000
2017-02-23 05:30:39,0.36,14.69,0.00,20.11,23.07,27.39,14.72,51.38,1022.97,2039.41,846.03,1166.93,1345.58,599.99,605.72,30.78,0000 0000 0000 0000 000000
2017-02-23 05:35:40,0.44,14.71,0.00,20.13,23.09,27.42,14.78,51.46,1022.98,2039.09,844.61,1165.69,1344.18,600.08,605.82,30.83,0000 0000 0000 0000 000000
2017-02-23 05:40:41,0.37,14.73,0.00,20.13,23.12,27.44,14.84,51.58,1023.01,2039.02,843.35,1164.55,1342.92,599.96,605.67,30.88,0000 0000 0000 0000 000000
2017-02-23 05:45:43,0.39,14.75,0.00,20.17,23.14,27.47,14.80,51.35,1023.00,2039.00,842.05,1163.47,1341.69,599.87,605.60,30.93,0000 0000 0000 0000 000000
2017-02-23 05:50:44,0.39,14.77,0.00,20.19,23.16,27.49,14.77,51.45,1023.05,2039.00,840.83,1162.44,1340.51,599.63,605.22,30.98,0000 0000 0000 0000 000000
2017-02-23 05:55:45,0.40,14.79,0.00,20.20,23.18,27.50,14.83,51.46,1023.21,2039.00,839.62,1161.37,1339.33,599.77,605.41,31.03,0000 0000 0000 0000 000000
2017-02-23 06:00:46,0.38,14.81,0.00,20.22,23.21,27.52,14.85,51.52,1023.20,2038.98,838.39,1160.25,1337.93,600.09,605.60,31.08,0000 0000 0000 0000 000000
2017-02-23 06:05:48,0.41,14.83,0.00,20.21,23.23,27.53,14.78,51.38,1023.29,2038.98,837.07,1159.09,1336.54,599.85,605.43,31.13,0000 0000 0000 0000 000000
2017-02-23 06:10:49,0.37,14.85,0.00,20.22,23.26,27.56,14.82,51.50,1023.13,2038.96,835.85,1158.01,1335.30,599.88,605.47,31.18,0000 0000 0000 0000 000000
2017-02-23 06:15:51,0.33,14.87,0.00,20.23,23.28,27.59,14.77,51.34,1023.19,2038.73,834.69,1157.01,1334.07,599.99,605.48,31.23,0000 0000 0000 0000 000000
2017-02-23 06:20:52,0.34,14.88,0.00,20.25,23.30,27.60,14.81,51.43,1023.09,2038.41,833.49,1155.96,1332.82,599.75,605.21,31.28,0000 0000 0000 0000 000000
2017-02-23 06:25:53,0.33,14.90,0.00,20.25,23.32,27.62,14.84,51.41,1023.01,2038.10,832.40,1154.95,1331.63,600.04,605.43,31.33,0000 0000 0000 0000 000000
2017-02-23 06:30:55,0.35,14.92,0.00,20.30,23.34,27.64,14.78,51.35,1022.99,2038.03,831.28,1153.92,1330.44,600.14,605.37,31.38,0000 0000 0000 0000 000000
2017-02-23 06:35:56,0.34,14.94,0.00,20.30,23.36,27.65,14.79,51.36,1022.97,2038.02,830.27,1152.96,1329.30,600.07,605.35,31.43,0000 0000 0000 0000 000000
2017-02-23 06:40:57,0.33,14.95,0.00,20.27,23.37,27.68,14.78,51.31,1022.96,2038.00,829.17,1151.95,1328.12,599.87,605.27,31.48,0000 0000 0000 0000 000000
2017-02-23 06:45:58,0.34,14.97,0.00,20.28,23.39,27.70,14.78,51.22,1022.96,2038.00,828.09,1151.01,1326.94,599.84,605.15,31.53,0000 0000 0000 0000 000000
2017-02-23 06:51:00,0.36,14.99,0.00,20.30,23.41,27.73,14.74,51.18,1022.97,2038.00,827.00,1150.08,1325.77,599.97,605.29,31.59,0000 0000 0000 0000 000000
2017-02-23 06:56:01,0.40,15.01,0.00,20.32,23.42,27.72,14.84,51.12,1022.99,2037.99,825.86,1149.11,1324.58,600.21,605.37,31.64,0000 0000 0000 0000 000000
2017-02-23 07:01:02,0.37,15.03,0.00,20.33,23.44,27.74,14.77,51.08,1023.18,2037.99,824.74,1148.10,1323.46,599.83,605.23,31.69,0000 0000 0000 0000 000000
2017-02-23 07:06:04,0.38,15.05,0.00,20.32,23.45,27.76,14.74,51.18,1023.43,2037.97,823.57,1147.10,1322.33,599.87,605.28,31.74,0000 0000 0000 0000 000000
2017-02-23 07:11:05,0.36,15.06,0.00,20.34,23.47,27.79,14.83,51.12,1023.45,2037.94,822.38,1146.18,1321.16,599.97,605.39,31.79,0000 0000 0000 0000 000000
2017-02-23 07:16:06,0.34,15.08,0.00,20.35,23.47,27.79,14.81,51.21,1023.45,2037.93,821.30,1145.20,1320.01,600.26,605.72,31.84,0000 0000 0000 0000 000000
2017-02-23 07:21:08,0.29,15.10,0.00,20.35,23.49,27.81,14.80,51.23,1023.45,2037.59,820.17,1144.23,1318.83,600.27,605.58,31.89,0000 0000 0000 0000 000000
2017-02-23 07:26:09,0.32,15.12,0.00,20.35,23.50,27.81,14.83,51.15,1023.45,2037.31,819.07,1143.26,1317.73,600.17,605.65,31.94,0000 0000 0000 0000 000000
2017-02-23 07:31:10,0.32,15.13,0.00,20.37,23.51,27.82,14.78,51.23,1023.45,2037.18,818.04,1142.33,1316.66,599.50,604.99,31.99,0000 0000 0000 0000 000000
2017-02-23 07:36:12,0.32,15.15,0.00,20.35,23.52,27.84,14.77,51.08,1023.45,2037.07,817.05,1141.48,1315.60,599.62,605.02,32.04,0000 0000 0000 0000 000000
2017-02-23 07:41:13,0.32,15.16,0.00,20.34,23.52,27.82,14.80,51.08,1023.45,2037.04,816.07,1140.60,1314.56,599.68,605.20,32.09,0000 0000 0000 0000 000000
2017-02-23 07:46:14,0.34,15.18,0.00,20.37,23.52,27.83,14.82,51.01,1023.46,2037.01,815.00,1139.68,1313.46,600.53,605.89,32.14,0000 0000 0000 0000 000000
2017-02-23 07:51:15,0.32,15.20,0.00,20.36,23.54,27.86,14.88,51.10,1023.49,2037.01,813.93,1138.81,1312.44,600.53,606.00,32.19,0000 0000 0000 0000 000000
2017-02-23 07:56:16,0.37,15.22,0.00,20.34,23.54,27.86,14.93,51.17,1023.54,2037.00,812.83,1137.87,1311.37,600.35,605.79,32.24,0000 0000 0000 0000 000000
2017-02-23 08:01:18,0.31,15.23,0.00,20.35,23.55,27.85,14.74,50.98,1023.60,2037.00,811.80,1136.99,1310.28,599.90,605.27,32.29,0000 0000 0000 0000 000000
2017-02-23 08:06:19,0.38,15.25,0.00,20.37,23.55,27.85,14.79,51.03,1023.60,2037.00,810.71,1136.08,1309.26,600.31,605.90,32.34,0000 0000 0000 0000 000000
2017-02-23 08:11:21,0.36,15.27,0.00,20.36,23.55,27.85,14.85,50.98,1023.51,2037.00,809.60,1135.13,1308.14,600.24,605.71,32.39,0000 0000 0000 0000 000000
2017-02-23 08:16:22,0.35,15.29,0.00,20.35,23.55,27.85,14.81,51.12,1023.47,2037.00,808.61,1134.19,1307.08,599.96,605.46,32.44,0000 0000 0000 0000 000000
2017-02-23 08:21:24,0.33,15.30,0.00,20.35,23.55,27.86,14.83,50.99,1023.46,2037.00,807.65,1133.35,1306.05,600.16,605.70,32.49,0000 0000 0000 0000 000000
2017-02-23 08:26:25,0.33,15.32,0.00,20.33,23.55,27.86,14.92,51.02,1023.49,2037.00,806.65,1132.55,1305.06,600.21,605.73,32.54,0000 0000 0000 0000 000000
2017-02-23 08:31:26,0.29,15.33,0.00,20.34,23.55,27.86,14.79,50.96,1023.50,2037.00,805.66,1131.76,1304.10,599.92,605.39,32.59,0000 0000 0000 0000 000000
2017-02-23 08:36:27,0.28,15.35,0.00,20.34,23.55,27.84,14.83,51.01,1023.50,2037.00,804.74,1130.95,1303.16,600.25,605.84,32.64,0000 0000 0000 0000 000000
2017-02-23 08:41:28,0.33,15.37,0.00,20.34,23.55,27.86,14.79,50.95,1023.57,2037.00,803.77,1130.09,1302.19,599.71,605.36,32.69,0000 0000 0000 0000 000000
2017-02-23 08:46:29,0.35,15.38,0.00,20.32,23.55,27.84,14.80,50.99,1023.86,2037.00,802.76,1129.24,1301.22,599.87,605.63,32.74,0000 0000 0000 0000 000000
2017-02-23 08:51:31,0.34,15.40,0.00,20.30,23.55,27.84,14.77,50.97,1023.88,2037.00,801.77,1128.36,1300.23,600.05,605.87,32.79,0000 0000 0000 0000 000000
2017-02-23 08:56:32,0.30,15.42,0.00,20.30,23.55,27.84,14.90,50.88,1023.93,2037.00,800.80,1127.60,1299.26,600.49,606.34,32.84,0000 0000 0000 0000 000000
2017-02-23 09:01:33,0.29,15.43,0.00,20.30,23.55,27.82,14.84,51.01,1023.94,2037.00,799.84,1126.78,1298.29,599.71,605.62,32.90,0000 0000 0000 0000 000000
2017-02-23 09:06:34,0.27,15.45,0.00,20.29,23.55,27.81,14.84,51.03,1023.94,2037.00,798.98,1126.02,1297.42,599.89,605.76,32.95,0000 0000 0000 0000 000000
2017-02-23 09:11:36,0.33,15.46,0.00,20.27,23.55,27.82,14.81,50.97,1023.94,2037.00,798.10,1125.27,1296.56,600.20,606.11,33.00,0000 0000 0000 0000 000000
2017-02-23 09:16:37,0.29,15.48,0.00,20.27,23.55,27.80,14.78,50.92,1023.94,2037.00,797.22,1124.58,1295.79,600.38,606.30,33.05,0000 0000 0000 0000 000000
2017-02-23 09:21:38,0.25,15.49,0.00,20.28,23.55,27.80,14.83,50.90,1023.94,2037.00,796.39,1123.91,1294.91,600.08,605.83,33.10,0000 0000 0000 0000 000000
2017-02-23 09:26:40,0.30,15.51,0.00,20.29,23.55,27.83,14.77,51.03,1023.94,2037.00,795.55,1123.08,1294.02,600.22,606.10,33.15,0000 0000 0000 0000 000000
2017-02-23 09:31:41,0.29,15.52,0.00,20.28,23.55,27.80,14.79,51.10,1023.94,2037.00,794.72,1122.31,1293.15,599.98,605.59,33.20,0000 0000 0000 0000 000000
2017-02-23 09:36:42,0.29,15.54,0.00,20.28,23.55,27.80,14.81,51.04,1023.95,2036.99,793.85,1121.60,1292.23,600.45,606.42,33.25,0000 0000 0000 0000 000000
2017-02-23 09:41:44,0.23,15.55,0.00,20.25,23.54,27.80,14.79,50.95,1023.96,2036.99,792.99,1120.94,1291.38,600.14,606.06,33.30,0000 0000 0000 0000 000000
2017-02-23 09:46:45,0.34,15.57,0.00,20.23,23.54,27.79,14.83,50.98,1023.96,2036.99,792.05,1120.08,1290.40,599.86,605.86,33.35,0000 0000 0000 0000 000000
2017-02-23 09:51:47,0.33,15.58,0.00,20.23,23.53,27.78,14.77,50.93,1023.96,2036.99,791.12,1119.24,1289.45,599.84,605.77,33.40,0000 0000 0000 0000 000000
2017-02-23 09:56:48,0.32,15.60,0.00,20.22,23.52,27.75,14.78,50.98,1023.97,2036.99,790.30,1118.52,1288.60,599.81,605.86,33.45,0000 0000 0000 0000 000000
2017-02-23 10:01:50,0.26,15.61,0.00,20.23,23.52,27.77,14.84,50.98,1023.94,2036.99,789.42,1117.83,1287.77,599.81,605.68,33.50,0000 0000 0000 0000 000000
2017-02-23 10:06:51,0.24,15.63,0.00,20.19,23.52,27.75,14.85,50.98,1023.94,2036.99,788.69,1117.05,1286.93,600.18,606.36,33.55,0000 0000 0000 0000 000000
2017-02-23 10:11:52,0.29,15.64,0.00,20.19,23.52,27.73,14.85,50.98,1023.94,2036.99,787.83,1116.33,1286.05,599.88,606.00,33.60,0000 0000 0000 0000 000000
2017-02-23 10:16:53,0.25,15.66,0.00,20.18,23.51,27.72,14.91,51.08,1023.94,2036.99,787.01,1115.76,1285.23,600.07,606.12,33.65,0000 0000 0000 0000 000000
2017-02-23 10:21:54,0.29,15.67,0.00,20.16,23.50,27.71,14.80,51.03,1023.95,2036.99,786.17,1115.03,1284.54,599.69,605.90,33.70,0000 0000 0000 0000 000000
2017-02-23 10:26:56,0.29,15.68,0.00,20.16,23.50,27.72,14.85,50.90,1023.94,2036.99,785.49,1114.33,1283.77,599.92,606.06,33.75,0000 0000 0000 0000 000000
2017-02-23 10:31:57,0.16,15.69,0.00,20.15,23.50,27.71,14.82,51.01,1023.94,2036.99,784.82,1113.87,1283.00,599.85,605.93,33.80,0000 0000 0000 0000 000000
2017-02-23 10:36:58,0.28,15.71,0.00,20.13,23.48,27.69,14.81,50.96,1023.95,2037.00,784.03,1113.06,1282.15,600.22,606.42,33.86,0000 0000 0000 0000 000000
2017-02-23 10:42:00,0.30,15.72,0.00,20.12,23.47,27.68,14.92,50.98,1023.95,2037.00,783.25,1112.57,1281.55,600.22,606.43,33.91,0000 0000 0000 0000 000000
2017-02-23 10:47:01,0.17,15.73,0.00,20.10,23.47,27.68,14.83,51.06,1023.98,2037.00,782.67,1111.99,1280.89,600.07,606.21,33.96,0000 0000 0000 0000 000000
2017-02-23 10:52:02,0.25,15.75,0.00,20.10,23.46,27.66,14.87,51.05,1023.96,2037.00,781.95,1111.27,1280.07,599.81,606.25,34.01,0000 0000 0000 0000 000000
2017-02-23 10:57:03,0.25,15.76,0.00,20.08,23.45,27.65,14.81,50.97,1023.95,2037.00,781.14,1110.84,1279.36,599.95,606.12,34.06,0000 0000 0000 0000 000000
2017-02-23 11:02:05,0.23,15.77,0.00,20.08,23.45,27.63,14.83,50.92,1024.00,2037.01,780.58,1110.07,1278.87,599.86,606.16,34.11,0000 0000 0000 0000 000000
2017-02-23 11:07:06,0.19,15.78,0.00,20.08,23.43,27.63,14.76,51.02,1024.09,2037.00,779.97,1109.61,1278.06,599.72,606.18,34.16,0000 0000 0000 0000 000000
2017-02-23 11:12:08,0.27,15.79,0.00,20.07,23.42,27.62,14.76,50.91,1023.97,2037.01,779.12,1109.01,1277.35,599.95,606.36,34.21,0000 0000 0000 0000 000000
2017-02-23 11:17:09,0.31,15.80,0.00,20.05,23.42,27.61,14.86,51.12,1023.94,2037.02,778.46,1108.31,1276.71,599.95,606.26,34.26,0000 0000 0000 0000 000000
2017-02-23 11:22:10,0.12,15.82,0.00,20.04,23.41,27.61,14.86,51.07,1023.95,2037.02,777.87,1107.85,1276.00,599.91,606.25,34.31,0000 0000 0000 0000 000000
2017-02-23 11:27:11,0.29,15.83,0.00,20.05,23.40,27.62,14.85,51.06,1023.94,2037.02,777.07,1107.07,1275.22,600.02,606.23,34.36,0000 0000 0000 0000 000000
2017-02-23 11:32:13,0.29,15.84,0.00,20.05,23.40,27.61,14.84,51.13,1023.94,2037.02,776.37,1106.61,1274.64,600.07,606.42,34.41,0000 0000 0000 0000 000000
2017-02-23 11:37:14,0.19,15.85,0.00,20.06,23.38,27.58,14.84,51.04,1023.94,2037.03,775.71,1105.98,1273.84,599.53,605.87,34.46,0000 0000 0000 0000 000000
2017-02-23 11:42:15,0.27,15.87,0.00,20.04,23.37,27.57,14.82,51.06,1023.94,2037.08,774.91,1105.16,1272.99,599.90,606.23,34.51,0000 0000 0000 0000 000000
2017-02-23 11:47:17,0.30,15.88,0.00,20.03,23.37,27.58,14.85,51.13,1023.94,2037.08,774.06,1104.57,1272.12,599.81,606.05,34.56,0000 0000 0000 0000 000000
2017-02-23 11:52:18,0.28,15.90,0.00,20.01,23.37,27.56,14.87,51.23,1023.94,2037.19,773.26,1103.99,1271.47,599.79,606.08,34.61,0000 0000 0000 0000 000000
2017-02-23 11:57:19,0.33,15.91,0.00,20.01,23.35,27.53,14.85,51.18,1023.90,2037.31,772.55,1103.21,1270.71,599.99,606.45,34.66,0000 0000 0000 0000 000000
2017-02-23 12:02:21,0.16,15.92,0.00,19.99,23.35,27.55,14.92,51.06,1023.89,2037.30,771.85,1102.68,1269.94,600.47,606.97,34.71,0000 0000 0000 0000 000000
2017-02-23 12:07:22,0.28,15.94,0.00,19.97,23.34,27.54,14.85,51.13,1023.82,2037.37,771.03,1101.99,1269.08,600.39,606.94,34.76,0000 0000 0000 0000 000000
2017-02-23 12:12:23,0.37,15.95,0.00,19.96,23.32,27.53,14.80,51.02,1023.66,2037.38,770.15,1101.18,1268.22,599.86,606.32,34.82,0000 0000 0000 0000 000000
2017-02-23 12:17:25,0.36,15.97,0.00,19.98,23.32,27.52,14.89,51.17,1023.69,2037.69,769.34,1100.65,1267.52,599.85,606.12,34.87,0000 0000 0000 0000 000000
2017-02-23 12:22:26,0.22,15.98,0.00,19.98,23.32,27.53,14.86,51.15,1023.66,2037.79,768.62,1099.98,1266.72,599.79,606.26,34.92,0000 0000 0000 0000 000000
2017-02-23 12:27:28,0.22,16.00,0.00,19.97,23.30,27.52,14.82,51.14,1023.75,2037.81,767.94,1099.14,1265.95,599.89,606.30,34.97,0000 0000 0000 0000 000000
2017-02-23 12:32:30,0.31,16.01,0.00,19.96,23.29,27.52,14.88,51.31,1023.75,2037.93,767.10,1098.68,1265.10,600.45,606.91,35.02,0000 0000 0000 0000 000000
2017-02-23 12:37:31,0.29,16.03,0.00,19.94,23.29,27.49,14.93,51.28,1023.68,2037.97,766.37,1098.01,1264.35,600.24,606.64,35.07,0000 0000 0000 0000 000000
2017-02-23 12:42:32,0.24,16.04,0.00,19.93,23.27,27.47,14.79,51.03,1023.67,2037.96,765.73,1097.25,1263.68,600.01,606.41,35.12,0000 0000 0000 0000 000000
2017-02-23 12:47:34,0.21,16.05,0.00,19.92,23.27,27.47,14.83,51.23,1023.58,2037.96,764.95,1096.74,1262.90,599.86,606.28,35.17,0000 0000 0000 0000 000000
2017-02-23 12:52:35,0.30,16.07,0.00,19.91,23.27,27.47,14.86,51.29,1023.57,2037.98,764.09,1096.02,1262.06,599.95,606.38,35.22,0000 0000 0000 0000 000000
2017-02-23 12:57:36,0.34,16.08,0.00,19.90,23.25,27.48,14.89,51.23,1023.59,2037.99,763.38,1095.33,1261.27,600.06,606.51,35.27,0000 0000 0000 0000 000000